• In Uzbekistan
  • List of Countries
  • For 7 days
  • Water Temperature
  • Satellite Maps
  • Weather Map
  • Weather Widgets
  • user-avatar
    Login

    Hourly Weather Solden

    Today, 19 June, Wednesday

    Time Temperature Precipitation Wind Pressure Humidity
    00:00 +7°C° 0.4 mm 1 mps 584 mmHg 90%
    01:00 +7°C° 0.4 mm 1 mps 583 mmHg 90%
    02:00 +7°C° 0.3 mm 1 mps 583 mmHg 90%
    03:00 +7°C° 0.3 mm 1 mps 583 mmHg 90%
    04:00 +7°C° 0.3 mm 1 mps 583 mmHg 90%
    05:00 +8°C° 0.1 mm 1 mps 584 mmHg 88%
    06:00 +8°C° 0.1 mm 0 mps 584 mmHg 86%
    07:00 +9°C° 0.1 mm 0 mps 585 mmHg 84%
    08:00 +11°C° 0.6 mm 0 mps 585 mmHg 79%
    09:00 +13°C° 0.6 mm 1 mps 586 mmHg 73%
    10:00 +14°C° 0.6 mm 1 mps 586 mmHg 68%
    11:00 +15°C° 0.8 mm 1 mps 586 mmHg 66%
    12:00 +15°C° 0.8 mm 1 mps 586 mmHg 64%
    13:00 +16°C° 0.8 mm 1 mps 586 mmHg 63%
    14:00 +16°C° 0.9 mm 1 mps 586 mmHg 63%
    15:00 +16°C° 0.9 mm 1 mps 586 mmHg 63%
    16:00 +15°C° 0.9 mm 1 mps 586 mmHg 64%
    17:00 +14°C° 0.9 mm 1 mps 585 mmHg 70%
    18:00 +13°C° 0.9 mm 1 mps 585 mmHg 76%
    19:00 +11°C° 0.9 mm 0 mps 584 mmHg 82%
    20:00 +10°C° 0.3 mm 0 mps 584 mmHg 83%
    21:00 +9°C° 0.3 mm 0 mps 584 mmHg 85%
    22:00 +8°C° 0.3 mm 0 mps 583 mmHg 86%
    23:00 +7°C° 0.4 mm 0 mps 583 mmHg 87%

    Tomorrow, 20 June, Thursday

    Time Temperature Precipitation Wind Pressure Humidity
    00:00 +6°C° 0.4 mm 0 mps 583 mmHg 88%
    01:00 +6°C° 0.4 mm 0 mps 583 mmHg 88%
    02:00 +6°C° 0.1 mm 1 mps 582 mmHg 89%
    03:00 +6°C° 0.1 mm 1 mps 582 mmHg 89%
    04:00 +6°C° 0.1 mm 1 mps 582 mmHg 89%
    05:00 +7°C° 0 mm 0 mps 583 mmHg 86%
    06:00 +8°C° 0 mm 0 mps 584 mmHg 83%
    07:00 +10°C° 0 mm 0 mps 585 mmHg 79%
    08:00 +12°C° 0.5 mm 1 mps 585 mmHg 77%
    09:00 +13°C° 0.5 mm 1 mps 585 mmHg 75%
    10:00 +14°C° 0.5 mm 1 mps 586 mmHg 73%
    11:00 +15°C° 0.7 mm 2 mps 586 mmHg 69%
    12:00 +15°C° 0.7 mm 2 mps 586 mmHg 65%
    13:00 +16°C° 0.7 mm 2 mps 587 mmHg 61%
    14:00 +15°C° 1 mm 2 mps 586 mmHg 64%
    15:00 +15°C° 1 mm 2 mps 586 mmHg 68%
    16:00 +14°C° 1 mm 2 mps 586 mmHg 71%
    17:00 +14°C° 0.7 mm 1 mps 585 mmHg 76%
    18:00 +13°C° 0.7 mm 1 mps 585 mmHg 80%
    19:00 +11°C° 0.7 mm 0 mps 585 mmHg 85%
    20:00 +11°C° 0.6 mm 1 mps 585 mmHg 87%
    21:00 +9°C° 0.6 mm 1 mps 584 mmHg 89%
    22:00 +8°C° 0.6 mm 1 mps 584 mmHg 91%
    23:00 +8°C° 0.3 mm 1 mps 584 mmHg 91%

    Day after tomorrow, 21 June, Friday

    Time Temperature Precipitation Wind Pressure Humidity
    00:00 +8°C° 0.3 mm 1 mps 584 mmHg 91%
    01:00 +8°C° 0.3 mm 1 mps 584 mmHg 91%
    02:00 +7°C° 0.2 mm 1 mps 584 mmHg 91%
    03:00 +7°C° 0.2 mm 1 mps 584 mmHg 90%
    04:00 +7°C° 0.2 mm 1 mps 583 mmHg 90%
    05:00 +7°C° 0.2 mm 1 mps 584 mmHg 89%
    06:00 +8°C° 0.2 mm 1 mps 584 mmHg 87%
    07:00 +8°C° 0.2 mm 1 mps 584 mmHg 85%
    08:00 +9°C° 0.1 mm 1 mps 585 mmHg 81%
    09:00 +10°C° 0.1 mm 1 mps 585 mmHg 77%
    10:00 +11°C° 0.1 mm 1 mps 586 mmHg 73%
    11:00 +13°C° 0.1 mm 1 mps 586 mmHg 65%
    12:00 +15°C° 0.1 mm 1 mps 587 mmHg 57%
    13:00 +18°C° 0.1 mm 1 mps 588 mmHg 49%
    14:00 +16°C° 0.6 mm 1 mps 588 mmHg 53%
    15:00 +15°C° 0.6 mm 1 mps 587 mmHg 57%
    16:00 +15°C° 0.6 mm 1 mps 587 mmHg 62%
    17:00 +14°C° 1.1 mm 1 mps 586 mmHg 71%
    18:00 +12°C° 1.1 mm 1 mps 586 mmHg 80%
    19:00 +11°C° 1.1 mm 1 mps 585 mmHg 89%
    20:00 +10°C° 1.1 mm 1 mps 585 mmHg 90%
    21:00 +9°C° 1.1 mm 1 mps 584 mmHg 91%
    22:00 +8°C° 1.1 mm 1 mps 584 mmHg 92%
    23:00 +8°C° 0.5 mm 1 mps 584 mmHg 92%

    22 June, Saturday

    Time Temperature Precipitation Wind Pressure Humidity
    00:00 +7°C° 0.5 mm 1 mps 584 mmHg 93%
    01:00 +7°C° 0.5 mm 1 mps 583 mmHg 93%
    02:00 +7°C° 0.2 mm 1 mps 583 mmHg 94%
    03:00 +6°C° 0.2 mm 0 mps 583 mmHg 94%
    04:00 +5°C° 0.2 mm 0 mps 583 mmHg 94%
    05:00 +6°C° 0.1 mm 0 mps 583 mmHg 93%
    06:00 +7°C° 0.1 mm 0 mps 584 mmHg 91%
    07:00 +10°C° 0.1 mm 1 mps 585 mmHg 90%
    08:00 +10°C° 0.8 mm 1 mps 585 mmHg 86%
    09:00 +11°C° 0.8 mm 1 mps 585 mmHg 82%
    10:00 +12°C° 0.8 mm 1 mps 586 mmHg 79%
    11:00 +13°C° 1.1 mm 1 mps 586 mmHg 77%
    12:00 +13°C° 1.1 mm 2 mps 586 mmHg 76%
    13:00 +14°C° 1.1 mm 2 mps 586 mmHg 75%
    14:00 +14°C° 1.2 mm 2 mps 586 mmHg 76%
    15:00 +14°C° 1.2 mm 2 mps 586 mmHg 76%
    16:00 +13°C° 1.2 mm 1 mps 586 mmHg 77%
    17:00 +13°C° 0.6 mm 1 mps 585 mmHg 81%
    18:00 +12°C° 0.6 mm 1 mps 585 mmHg 84%
    19:00 +10°C° 0.6 mm 0 mps 585 mmHg 88%
    20:00 +9°C° 0.4 mm 0 mps 585 mmHg 90%
    21:00 +8°C° 0.4 mm 1 mps 584 mmHg 91%
    22:00 +7°C° 0.4 mm 1 mps 584 mmHg 92%
    23:00 +7°C° 0 mm 1 mps 584 mmHg 92%

    23 June, Sunday

    Time Temperature Precipitation Wind Pressure Humidity
    00:00 +6°C° 0 mm 1 mps 584 mmHg 92%
    01:00 +6°C° 0 mm 1 mps 584 mmHg 93%
    02:00 +6°C° 0 mm 1 mps 584 mmHg 92%
    03:00 +5°C° 0 mm 1 mps 583 mmHg 92%
    04:00 +5°C° 0 mm 1 mps 583 mmHg 92%
    05:00 +6°C° 0 mm 1 mps 584 mmHg 88%
    06:00 +7°C° 0 mm 0 mps 585 mmHg 84%
    07:00 +9°C° 0 mm 0 mps 586 mmHg 80%
    08:00 +11°C° 0 mm 0 mps 587 mmHg 71%
    09:00 +14°C° 0 mm 1 mps 588 mmHg 62%
    10:00 +16°C° 0 mm 1 mps 589 mmHg 53%
    11:00 +18°C° 0 mm 1 mps 589 mmHg 50%
    12:00 +17°C° 0 mm 2 mps 590 mmHg 46%
    13:00 +18°C° 0 mm 2 mps 590 mmHg 43%
    14:00 +18°C° 0.1 mm 2 mps 590 mmHg 44%
    15:00 +18°C° 0.1 mm 2 mps 590 mmHg 45%
    16:00 +18°C° 0.1 mm 2 mps 590 mmHg 47%
    17:00 +18°C° 0.2 mm 1 mps 589 mmHg 58%
    18:00 +15°C° 0.2 mm 1 mps 589 mmHg 69%
    19:00 +14°C° 0.2 mm 1 mps 588 mmHg 80%
    20:00 +12°C° 0.1 mm 1 mps 588 mmHg 83%
    21:00 +11°C° 0.1 mm 1 mps 588 mmHg 87%
    22:00 +9°C° 0.1 mm 1 mps 587 mmHg 90%
    23:00 +9°C° 0 mm 1 mps 587 mmHg 90%

    24 June, Monday

    Time Temperature Precipitation Wind Pressure Humidity
    00:00 +8°C° 0 mm 1 mps 587 mmHg 90%
    01:00 +8°C° 0 mm 1 mps 587 mmHg 90%
    02:00 +8°C° 0 mm 1 mps 587 mmHg 89%
    03:00 +8°C° 0 mm 1 mps 587 mmHg 88%
    04:00 +7°C° 0 mm 1 mps 587 mmHg 87%
    05:00 +9°C° 0 mm 1 mps 588 mmHg 81%
    06:00 +10°C° 0 mm 0 mps 589 mmHg 75%
    07:00 +12°C° 0 mm 0 mps 590 mmHg 69%
    08:00 +14°C° 0 mm 0 mps 591 mmHg 61%
    09:00 +18°C° 0 mm 1 mps 592 mmHg 53%
    10:00 +20°C° 0 mm 1 mps 593 mmHg 46%
    11:00 +21°C° 0 mm 1 mps 593 mmHg 44%
    12:00 +22°C° 0 mm 1 mps 594 mmHg 41%
    13:00 +23°C° 0 mm 1 mps 594 mmHg 39%
    14:00 +23°C° 0.1 mm 1 mps 594 mmHg 40%
    15:00 +23°C° 0.1 mm 1 mps 594 mmHg 40%
    16:00 +23°C° 0.1 mm 1 mps 594 mmHg 41%
    17:00 +22°C° 0.1 mm 1 mps 593 mmHg 53%
    18:00 +20°C° 0.1 mm 1 mps 593 mmHg 64%
    19:00 +18°C° 0.1 mm 1 mps 592 mmHg 76%
    20:00 +16°C° 0 mm 1 mps 592 mmHg 80%
    21:00 +14°C° 0 mm 1 mps 591 mmHg 84%
    22:00 +11°C° 0 mm 0 mps 591 mmHg 89%
    23:00 +12°C° 0 mm 1 mps 591 mmHg 86%
    Show more